QPF
0.02 0.02 0.02 0.02 0.02 0.02 0.03 0.05 0.05 0.03 0.03 0.08 0.12 0.09 0.09 0.05 0.03 0.02 0.05 0.06 0.03 0.03 0.02 0.01 0.01 0.01 0.01 0.01 0.03 0.04 0.05 0.04 0.04 0.05 0.06 0.05 0.04 0.04 0.03 0.02 0.02 0.02 0.02 0.03
0.02 0.02 0.02 0.02 0.02 0.03 0.04 0.04 0.04 0.05 0.07 0.17 0.16 0.08 0.07 0.07 0.04 0.01 0.01 0.01 0.02 0.03 0.01 0.01 0.01 0.01 0.01 0.01 0.02 0.03 0.03 0.04 0.04 0.04 0.03 0.03 0.03 0.03 0.03 0.03 0.02 0.02 0.03 0.03
0.03 0.02 0.02 0.02 0.02 0.05 0.06 0.04 0.03 0.05 0.10 0.19 0.17 0.06 0.06 0.08 0.06 0.04 0.05 0.03 0.03 0.02 0.01 0.01 0.01 0.01 0.01 0.01 0.02 0.02 0.02 0.02 0.03 0.03 0.03 0.04 0.05 0.04 0.03 0.03 0.02 0.02 0.03 0.02
0.03 0.03 0.03 0.03 0.03 0.06 0.05 0.07 0.05 0.07 0.09 0.09 0.06 0.05 0.05 0.05 0.04 0.03 0.08 0.10 0.06 0.03 0.02 0.01 0.01 0.01 0.01 0.01 0.01 0.02 0.02 0.02 0.03 0.04 0.05 0.05 0.04 0.04 0.03 0.04 0.04 0.04 0.04 0.03
0.02 0.03 0.03 0.02 0.03 0.06 0.06 0.09 0.10 0.10 0.08 0.08 0.06 0.06 0.06 0.05 0.05 0.05 0.04 0.04 0.05 0.03 0.02 0.01 0.01 0.01 0.01 0.01 0.01 0.01 0.02 0.02 0.03 0.03 0.02 0.02 0.03 0.02 0.03 0.04 0.05 0.05 0.05 0.04
0.02 0.03 0.03 0.03 0.03 0.04 0.06 0.10 0.15 0.18 0.12 0.10 0.06 0.05 0.06 0.08 0.10 0.08 0.05 0.03 0.02 0.01 0.01 0.01 0.01 0.01 0.02 0.03 0.02 0.02 0.02 0.02 0.01 0.01 0.01 0.01 0.02 0.02 0.02 0.03 0.05 0.06 0.05 0.04
0.01 0.02 0.05 0.04 0.03 0.03 0.08 0.10 0.13 0.16 0.12 0.07 0.05 0.05 0.05 0.05 0.04 0.03 0.02 0.01 0.01 0.01 0.01 0.01 0.01 0.01 0.01 0.03 0.02 0.02 0.02 0.01 0.01 0.01 0.01 0.01 0.02 0.02 0.02 0.03 0.05 0.06 0.04 0.04
0.01 0.02 0.04 0.05 0.04 0.04 0.05 0.04 0.05 0.08 0.07 0.05 0.05 0.05 0.04 0.04 0.03 0.03 0.02 0.01 0.01 0.02 0.02 0.02 0.01 0.01 0.02 0.02 0.03 0.02 0.02 0.02 0.02 0.02 0.02 0.01 0.01 0.01 0.02 0.02 0.02 0.05 0.06 0.04
0.02 0.02 0.04 0.05 0.04 0.03 0.02 0.02 0.03 0.05 0.10 0.07 0.05 0.03 0.02 0.03 0.03 0.03 0.03 0.02 0.02 0.02 0.02 0.02 0.01 0.01 0.01 0.02 0.03 0.03 0.03 0.03 0.03 0.02 0.02 0.01 0.01 0.01 0.01 0.01 0.02 0.03 0.03 0.03
0.05 0.04 0.03 0.07 0.11 0.03 0.02 0.01 0.01 0.03 0.06 0.09 0.05 0.02 0.01 0.01 0.01 0.02 0.03 0.05 0.06 0.05 0.03 0.03 0.02 0.01 0.02 0.03 0.04 0.03 0.03 0.03 0.02 0.02 0.02 0.02 0.02 0.01 0.01 0.01 0.02 0.03 0.05 0.03
0.04 0.04 0.04 0.05 0.04 0.02 0.02 0.01 0.02 0.02 0.02 0.03 0.03 0.01 0.01 0.01 0.01 0.01 0.02 0.03 0.04 0.05 0.06 0.07 0.06 0.04 0.03 0.03 0.03 0.03 0.03 0.02 0.03 0.03 0.03 0.03 0.03 0.02 0.02 0.03 0.03 0.03 0.06 0.07
0.05 0.04 0.04 0.06 0.04 0.02 0.02 0.02 0.03 0.03 0.02 0.02 0.01 0.01 0.01 0.01 0.01 0.01 0.02 0.02 0.02 0.04 0.06 0.08 0.10 0.13 0.10 0.07 0.06 0.04 0.04 0.03 0.04 0.05 0.05 0.03 0.03 0.04 0.04 0.05 0.04 0.03 0.03 0.06
0.09 0.07 0.03 0.03 0.05 0.03 0.03 0.04 0.04 0.03 0.02 0.01 0.01 0.01 0.01 0.01 0.01 0.01 0.01 0.01 0.01 0.02 0.03 0.07 0.08 0.12 0.13 0.11 0.08 0.06 0.05 0.05 0.05 0.05 0.04 0.05 0.05 0.07 0.09 0.10 0.08 0.05 0.04 0.04
0.15 0.17 0.12 0.09 0.05 0.04 0.04 0.02 0.02 0.02 0.02 0.01 0.01 0.01 0.01 0.01 0.01 0.01 0.01 0.01 0.01 0.01 0.02 0.02 0.02 0.03 0.04 0.05 0.03 0.04 0.04 0.05 0.05 0.04 0.03 0.05 0.07 0.08 0.08 0.09 0.10 0.09 0.07 0.07
0.12 0.14 0.13 0.10 0.05 0.04 0.04 0.03 0.04 0.04 0.03 0.02 0.01 0.01 0.01 0.01 0.01 0.01 0.01 0.01 0.01 0.01 0.01 0.01 0.01 0.01 0.03 0.08 0.08 0.06 0.05 0.06 0.06 0.04 0.04 0.04 0.04 0.04 0.06 0.08 0.09 0.08 0.07 0.07
0.09 0.10 0.08 0.05 0.04 0.04 0.03 0.03 0.04 0.04 0.04 0.03 0.02 0.01 0.01 0.01 0.01 0.01 0.00 0.01 0.00 0.00 0.01 0.01 0.01 0.01 0.03 0.07 0.12 0.09 0.07 0.09 0.07 0.03 0.03 0.04 0.03 0.04 0.05 0.06 0.06 0.05 0.05 0.05
0.05 0.05 0.03 0.03 0.03 0.04 0.03 0.02 0.02 0.03 0.03 0.02 0.02 0.01 0.00 0.00 0.00 0.00 0.00 0.00 0.01 0.01 0.01 0.01 0.02 0.03 0.03 0.04 0.04 0.04 0.05 0.06 0.07 0.04 0.05 0.05 0.04 0.04 0.04 0.04 0.05 0.05 0.04 0.04
0.03 0.02 0.02 0.02 0.03 0.04 0.02 0.02 0.02 0.02 0.01 0.01 0.01 0.01 0.01 0.00 0.00 0.00 0.00 0.00 0.00 0.00 0.00 0.01 0.02 0.03 0.05 0.05 0.03 0.02 0.03 0.05 0.06 0.06 0.05 0.05 0.06 0.06 0.06 0.06 0.07 0.07 0.06 0.05
0.04 0.04 0.03 0.02 0.03 0.03 0.02 0.01 0.01 0.01 0.01 0.01 0.01 0.01 0.00 0.00 0.00 0.00 0.00 0.00 0.00 0.00 0.01 0.01 0.02 0.02 0.03 0.05 0.05 0.04 0.04 0.05 0.06 0.07 0.07 0.08 0.09 0.08 0.07 0.08 0.09 0.11 0.10 0.09
0.06 0.05 0.04 0.03 0.02 0.02 0.01 0.01 0.00 0.00 0.00 0.01 0.01 0.00 0.01 0.01 0.00 0.00 0.01 0.00 0.00 0.00 0.00 0.01 0.01 0.01 0.01 0.02 0.03 0.04 0.04 0.04 0.05 0.06 0.08 0.09 0.11 0.11 0.10 0.09 0.09 0.10 0.12 0.11
0.07 0.04 0.03 0.02 0.02 0.02 0.01 0.01 0.01 0.01 0.01 0.00 0.01 0.01 0.01 0.01 0.01 0.01 0.01 0.00 0.00 0.00 0.00 0.00 0.01 0.01 0.01 0.01 0.02 0.03 0.04 0.04 0.06 0.06 0.06 0.10 0.11 0.12 0.10 0.10 0.09 0.08 0.10 0.10
0.08 0.05 0.03 0.03 0.02 0.02 0.02 0.02 0.01 0.01 0.00 0.00 0.01 0.01 0.01 0.01 0.01 0.01 0.01 0.00 0.00 0.00 0.01 0.01 0.01 0.01 0.01 0.01 0.02 0.03 0.05 0.08 0.09 0.07 0.05 0.05 0.06 0.08 0.08 0.07 0.06 0.04 0.05 0.05
0.09 0.05 0.04 0.03 0.02 0.02 0.03 0.02 0.02 0.01 0.01 0.01 0.01 0.01 0.01 0.01 0.01 0.01 0.01 0.00 0.00 0.01 0.01 0.01 0.01 0.01 0.01 0.01 0.01 0.01 0.03 0.05 0.07 0.08 0.07 0.06 0.06 0.05 0.05 0.05 0.04 0.04 0.03 0.04
0.08 0.04 0.03 0.02 0.03 0.03 0.03 0.03 0.03 0.02 0.02 0.01 0.01 0.01 0.01 0.01 0.01 0.01 0.00 0.00 0.01 0.01 0.01 0.01 0.01 0.01 0.01 0.01 0.01 0.01 0.02 0.03 0.04 0.05 0.07 0.06 0.05 0.05 0.05 0.04 0.03 0.03 0.03 0.03
0.03 0.02 0.02 0.02 0.02 0.03 0.02 0.02 0.02 0.03 0.03 0.02 0.01 0.01 0.01 0.01 0.01 0.01 0.01 0.01 0.01 0.01 0.01 0.01 0.01 0.01 0.01 0.01 0.01 0.01 0.01 0.02 0.02 0.02 0.03 0.04 0.05 0.05 0.04 0.04 0.02 0.02 0.02 0.03
0.02 0.01 0.02 0.02 0.02 0.02 0.02 0.01 0.01 0.02 0.03 0.02 0.02 0.01 0.01 0.02 0.02 0.02 0.01 0.01 0.02 0.02 0.01 0.01 0.01 0.01 0.01 0.01 0.01 0.01 0.01 0.01 0.01 0.01 0.02 0.03 0.04 0.04 0.03 0.03 0.02 0.02 0.03 0.02
0.01 0.01 0.02 0.01 0.01 0.01 0.01 0.01 0.01 0.02 0.03 0.03 0.03 0.04 0.03 0.01 0.01 0.01 0.02 0.02 0.02 0.02 0.01 0.01 0.01 0.01 0.01 0.01 0.01 0.01 0.01 0.01 0.01 0.01 0.01 0.01 0.02 0.03 0.03 0.03 0.02 0.02 0.03 0.03
MSLP
1014.43 1015.36 1016.30 1017.17 1017.86 1018.25 1018.28 1017.92 1017.17 1016.10 1014.81 1013.42 1012.06 1010.85 1009.85 1009.11 1008.60 1008.28 1008.08 1007.92 1007.72 1007.44 1007.09 1006.68 1006.25 1005.87 1005.60 1005.46 1005.48 1005.62 1005.86 1006.14 1006.40 1006.60 1006.70 1006.71 1006.63 1006.50 1006.36 1006.24 1006.16 1006.14 1006.18 1006.25
1015.00 1015.85 1016.65 1017.32 1017.77 1017.95 1017.80 1017.34 1016.57 1015.58 1014.46 1013.30 1012.21 1011.27 1010.51 1009.96 1009.58 1009.32 1009.12 1008.92 1008.67 1008.34 1007.94 1007.51 1007.09 1006.72 1006.46 1006.32 1006.30 1006.38 1006.52 1006.66 1006.77 1006.81 1006.75 1006.62 1006.42 1006.20 1005.99 1005.82 1005.70 1005.64 1005.64 1005.68
1015.67 1016.41 1017.03 1017.50 1017.74 1017.72 1017.43 1016.89 1016.14 1015.25 1014.29 1013.35 1012.50 1011.80 1011.26 1010.86 1010.58 1010.37 1010.16 1009.93 1009.63 1009.27 1008.85 1008.42 1008.02 1007.68 1007.43 1007.28 1007.23 1007.23 1007.26 1007.26 1007.20 1007.07 1006.85 1006.57 1006.25 1005.93 1005.65 1005.42 1005.26 1005.17 1005.13 1005.13
1016.32 1016.90 1017.35 1017.61 1017.66 1017.49 1017.10 1016.53 1015.82 1015.03 1014.24 1013.50 1012.86 1012.36 1011.98 1011.70 1011.49 1011.30 1011.10 1010.84 1010.51 1010.13 1009.72 1009.31 1008.94 1008.63 1008.40 1008.25 1008.15 1008.08 1007.98 1007.84 1007.62 1007.33 1006.96 1006.54 1006.11 1005.70 1005.35 1005.08 1004.88 1004.74 1004.66 1004.61
1016.80 1017.20 1017.45 1017.54 1017.44 1017.16 1016.72 1016.16 1015.52 1014.85 1014.22 1013.66 1013.20 1012.85 1012.60 1012.41 1012.24 1012.07 1011.86 1011.58 1011.25 1010.88 1010.49 1010.11 1009.78 1009.50 1009.29 1009.12 1008.98 1008.82 1008.62 1008.34 1007.98 1007.54 1007.04 1006.51 1006.00 1005.53 1005.13 1004.81 1004.57 1004.39 1004.26 1004.14
1016.99 1017.19 1017.27 1017.20 1017.00 1016.67 1016.23 1015.72 1015.19 1014.66 1014.19 1013.79 1013.48 1013.26 1013.09 1012.96 1012.83 1012.66 1012.45 1012.17 1011.85 1011.49 1011.13 1010.79 1010.49 1010.24 1010.03 1009.85 1009.66 1009.42 1009.12 1008.73 1008.25 1007.71 1007.11 1006.51 1005.93 1005.42 1004.98 1004.63 1004.35 1004.12 1003.92 1003.72
1016.84 1016.85 1016.77 1016.59 1016.34 1016.01 1015.63 1015.22 1014.82 1014.45 1014.14 1013.89 1013.71 1013.58 1013.49 1013.40 1013.28 1013.12 1012.91 1012.64 1012.33 1012.00 1011.67 1011.36 1011.09 1010.86 1010.64 1010.43 1010.18 1009.87 1009.48 1009.01 1008.45 1007.83 1007.18 1006.54 1005.94 1005.41 1004.95 1004.57 1004.24 1003.95 1003.67 1003.37
1016.37 1016.21 1016.01 1015.78 1015.53 1015.25 1014.98 1014.71 1014.47 1014.27 1014.11 1014.00 1013.93 1013.89 1013.84 1013.78 1013.68 1013.53 1013.32 1013.06 1012.77 1012.47 1012.17 1011.88 1011.62 1011.38 1011.15 1010.89 1010.58 1010.21 1009.75 1009.22 1008.61 1007.96 1007.29 1006.65 1006.05 1005.52 1005.05 1004.64 1004.27 1003.91 1003.53 1003.11
1015.68 1015.40 1015.14 1014.91 1014.70 1014.53 1014.40 1014.30 1014.23 1014.19 1014.19 1014.20 1014.23 1014.24 1014.24 1014.20 1014.11 1013.96 1013.77 1013.52 1013.25 1012.97 1012.69 1012.41 1012.15 1011.89 1011.61 1011.30 1010.94 1010.50 1010.00 1009.43 1008.80 1008.15 1007.50 1006.87 1006.30 1005.78 1005.31 1004.88 1004.46 1004.02 1003.53 1002.99
1014.90 1014.57 1014.31 1014.12 1014.02 1013.98 1014.01 1014.08 1014.18 1014.30 1014.42 1014.54 1014.63 1014.70 1014.72 1014.70 1014.61 1014.48 1014.30 1014.08 1013.83 1013.56 1013.29 1013.01 1012.73 1012.43 1012.10 1011.74 1011.31 1010.83 1010.30 1009.71 1009.09 1008.46 1007.85 1007.27 1006.73 1006.23 1005.77 1005.31 1004.84 1004.32 1003.74 1003.08
1014.19 1013.87 1013.66 1013.57 1013.59 1013.70 1013.88 1014.11 1014.36 1014.61 1014.84 1015.03 1015.17 1015.27 1015.31 1015.29 1015.22 1015.11 1014.94 1014.75 1014.52 1014.27 1014.00 1013.71 1013.40 1013.06 1012.68 1012.26 1011.79 1011.27 1010.72 1010.13 1009.54 1008.96 1008.39 1007.86 1007.37 1006.90 1006.43 1005.95 1005.43 1004.85 1004.18 1003.42
1013.66 1013.41 1013.29 1013.32 1013.47 1013.73 1014.05 1014.41 1014.77 1015.10 1015.39 1015.63 1015.80 1015.91 1015.96 1015.95 1015.90 1015.80 1015.67 1015.50 1015.31 1015.08 1014.81 1014.52 1014.18 1013.80 1013.38 1012.91 1012.41 1011.87 1011.31 1010.75 1010.19 1009.66 1009.15 1008.68 1008.22 1007.78 1007.32 1006.82 1006.26 1005.61 1004.87 1004.04
1013.36 1013.21 1013.21 1013.36 1013.64 1014.01 1014.44 1014.89 1015.32 1015.70 1016.02 1016.27 1016.44 1016.55 1016.60 1016.61 1016.58 1016.51 1016.42 1016.30 1016.14 1015.94 1015.69 1015.40 1015.05 1014.65 1014.20 1013.70 1013.18 1012.64 1012.09 1011.56 1011.05 1010.57 1010.12 1009.69 1009.28 1008.85 1008.39 1007.87 1007.28 1006.59 1005.81 1004.93
1013.26 1013.23 1013.36 1013.63 1014.01 1014.47 1014.97 1015.46 1015.91 1016.30 1016.62 1016.85 1017.01 1017.12 1017.17 1017.20 1017.20 1017.18 1017.14 1017.07 1016.96 1016.80 1016.59 1016.31 1015.97 1015.56 1015.10 1014.60 1014.08 1013.55 1013.04 1012.54 1012.08 1011.65 1011.25 1010.87 1010.47 1010.06 1009.59 1009.06 1008.44 1007.73 1006.92 1006.03
1013.31 1013.41 1013.65 1014.01 1014.47 1014.99 1015.51 1016.02 1016.46 1016.83 1017.12 1017.33 1017.47 1017.57 1017.64 1017.69 1017.73 1017.77 1017.79 1017.78 1017.74 1017.64 1017.47 1017.22 1016.90 1016.51 1016.06 1015.58 1015.08 1014.58 1014.10 1013.65 1013.23 1012.85 1012.48 1012.12 1011.75 1011.33 1010.85 1010.30 1009.67 1008.94 1008.13 1007.25
1013.43 1013.65 1013.99 1014.43 1014.94 1015.48 1016.01 1016.49 1016.91 1017.24 1017.50 1017.68 1017.81 1017.91 1018.00 1018.08 1018.18 1018.28 1018.37 1018.43 1018.45 1018.41 1018.29 1018.09 1017.80 1017.45 1017.03 1016.57 1016.11 1015.65 1015.21 1014.80 1014.42 1014.07 1013.73 1013.39 1013.01 1012.58 1012.09 1011.52 1010.86 1010.13 1009.33 1008.47
1013.58 1013.90 1014.32 1014.81 1015.35 1015.90 1016.41 1016.87 1017.25 1017.55 1017.78 1017.94 1018.07 1018.18 1018.30 1018.43 1018.58 1018.74 1018.89 1019.02 1019.11 1019.12 1019.05 1018.89 1018.65 1018.32 1017.95 1017.53 1017.11 1016.69 1016.29 1015.92 1015.58 1015.25 1014.93 1014.58 1014.19 1013.74 1013.22 1012.62 1011.95 1011.22 1010.43 1009.60
1013.71 1014.12 1014.60 1015.14 1015.70 1016.24 1016.74 1017.17 1017.53 1017.80 1018.01 1018.17 1018.31 1018.44 1018.59 1018.77 1018.97 1019.18 1019.39 1019.58 1019.70 1019.76 1019.73 1019.60 1019.39 1019.11 1018.77 1018.40 1018.01 1017.64 1017.28 1016.95 1016.63 1016.32 1015.99 1015.63 1015.22 1014.74 1014.19 1013.57 1012.89 1012.15 1011.38 1010.58
1013.84 1014.32 1014.86 1015.43 1016.00 1016.54 1017.03 1017.44 1017.78 1018.04 1018.25 1018.42 1018.58 1018.74 1018.93 1019.15 1019.39 1019.64 1019.88 1020.09 1020.24 1020.31 1020.30 1020.20 1020.01 1019.75 1019.44 1019.11 1018.76 1018.43 1018.11 1017.81 1017.52 1017.21 1016.89 1016.51 1016.08 1015.58 1015.00 1014.36 1013.66 1012.92 1012.17 1011.41
1014.00 1014.53 1015.11 1015.70 1016.28 1016.82 1017.30 1017.70 1018.03 1018.30 1018.52 1018.71 1018.90 1019.09 1019.31 1019.56 1019.82 1020.08 1020.33 1020.54 1020.69 1020.76 1020.74 1020.64 1020.46 1020.21 1019.93 1019.63 1019.32 1019.02 1018.74 1018.47 1018.20 1017.91 1017.59 1017.21 1016.77 1016.25 1015.66 1015.00 1014.30 1013.58 1012.85 1012.12
1014.20 1014.78 1015.39 1015.99 1016.57 1017.10 1017.56 1017.96 1018.29 1018.57 1018.80 1019.02 1019.23 1019.45 1019.69 1019.95 1020.21 1020.47 1020.70 1020.89 1021.01 1021.05 1021.01 1020.89 1020.71 1020.47 1020.21 1019.93 1019.66 1019.40 1019.16 1018.92 1018.69 1018.42 1018.12 1017.75 1017.31 1016.80 1016.21 1015.56 1014.88 1014.17 1013.46 1012.78
1014.47 1015.07 1015.68 1016.28 1016.84 1017.35 1017.79 1018.18 1018.51 1018.79 1019.03 1019.27 1019.50 1019.73 1019.98 1020.24 1020.49 1020.73 1020.92 1021.07 1021.15 1021.15 1021.08 1020.93 1020.74 1020.51 1020.26 1020.01 1019.78 1019.56 1019.36 1019.18 1018.98 1018.76 1018.49 1018.16 1017.75 1017.26 1016.70 1016.09 1015.43 1014.76 1014.09 1013.45
1014.78 1015.38 1015.97 1016.54 1017.06 1017.53 1017.94 1018.30 1018.62 1018.89 1019.15 1019.39 1019.63 1019.87 1020.12 1020.36 1020.59 1020.79 1020.95 1021.04 1021.07 1021.03 1020.93 1020.77 1020.56 1020.34 1020.11 1019.89 1019.70 1019.53 1019.39 1019.25 1019.11 1018.95 1018.73 1018.45 1018.10 1017.67 1017.16 1016.60 1015.99 1015.37 1014.75 1014.15
1015.10 1015.66 1016.21 1016.72 1017.18 1017.60 1017.96 1018.28 1018.57 1018.83 1019.08 1019.32 1019.56 1019.81 1020.04 1020.27 1020.47 1020.64 1020.75 1020.81 1020.80 1020.72 1020.59 1020.42 1020.21 1020.00 1019.80 1019.62 1019.47 1019.36 1019.27 1019.19 1019.12 1019.02 1018.87 1018.66 1018.38 1018.02 1017.59 1017.10 1016.57 1016.01 1015.44 1014.88
1015.36 1015.87 1016.35 1016.78 1017.17 1017.51 1017.82 1018.10 1018.35 1018.59 1018.83 1019.07 1019.30 1019.54 1019.77 1019.98 1020.16 1020.30 1020.38 1020.40 1020.37 1020.27 1020.13 1019.95 1019.76 1019.57 1019.39 1019.25 1019.15 1019.09 1019.06 1019.04 1019.03 1018.99 1018.91 1018.78 1018.58 1018.31 1017.96 1017.56 1017.10 1016.61 1016.11 1015.60
1015.53 1015.96 1016.35 1016.70 1017.01 1017.28 1017.53 1017.76 1017.98 1018.20 1018.43 1018.66 1018.90 1019.13 1019.35 1019.55 1019.72 1019.84 1019.90 1019.91 1019.86 1019.75 1019.61 1019.45 1019.27 1019.11 1018.97 1018.87 1018.81 1018.78 1018.80 1018.83 1018.86 1018.88 1018.87 1018.80 1018.67 1018.48 1018.22 1017.90 1017.53 1017.12 1016.68 1016.23
1015.55 1015.91 1016.22 1016.49 1016.72 1016.93 1017.13 1017.33 1017.53 1017.74 1017.96 1018.20 1018.44 1018.67 1018.90 1019.09 1019.25 1019.36 1019.42 1019.42 1019.36 1019.27 1019.14 1018.99 1018.84 1018.70 1018.59 1018.51 1018.48 1018.48 1018.52 1018.57 1018.63 1018.69 1018.71 1018.69 1018.63 1018.50 1018.32 1018.07 1017.78 1017.44 1017.07 1016.67
Thickness
5775 5784 5788 5785 5785 5785 5774 5765 5756 5761 5767 5776 5784 5788 5789 5790 5790 5790 5789 5788 5787 5784 5783 5782 5781 5780 5779 5777 5776 5774 5769 5765 5761 5759 5756 5753 5749 5746 5743 5740 5737 5734 5730 5727
5769 5782 5783 5778 5782 5782 5779 5775 5770 5768 5767 5783 5786 5788 5786 5785 5786 5784 5783 5783 5782 5781 5778 5776 5774 5773 5772 5770 5768 5767 5762 5759 5756 5753 5750 5746 5743 5739 5736 5733 5730 5727 5724 5721
5747 5766 5769 5755 5772 5776 5775 5778 5775 5763 5769 5780 5779 5780 5780 5781 5781 5778 5778 5778 5776 5775 5773 5771 5770 5768 5764 5763 5762 5759 5756 5753 5750 5747 5743 5740 5737 5733 5730 5726 5723 5719 5716 5714
5739 5748 5734 5755 5783 5784 5777 5776 5779 5776 5777 5779 5780 5779 5781 5781 5779 5776 5775 5773 5771 5770 5769 5768 5766 5763 5761 5759 5755 5752 5749 5746 5744 5740 5737 5734 5730 5727 5723 5720 5717 5713 5710 5707
5728 5727 5735 5758 5776 5778 5769 5762 5775 5774 5775 5776 5777 5773 5768 5775 5777 5775 5773 5771 5769 5768 5765 5762 5759 5757 5755 5751 5748 5744 5741 5739 5737 5734 5731 5727 5724 5720 5717 5713 5709 5707 5704 5701
5728 5724 5721 5749 5777 5787 5772 5750 5773 5775 5772 5772 5769 5750 5755 5770 5772 5770 5768 5767 5765 5762 5758 5754 5752 5750 5746 5741 5739 5736 5734 5733 5731 5729 5725 5721 5718 5715 5712 5708 5704 5701 5697 5695
5725 5723 5733 5763 5778 5778 5745 5747 5771 5773 5770 5767 5761 5760 5764 5767 5765 5764 5762 5760 5758 5754 5750 5747 5745 5743 5737 5733 5730 5730 5729 5727 5724 5722 5719 5716 5712 5709 5705 5701 5698 5693 5690 5688
5720 5717 5727 5768 5771 5760 5758 5770 5770 5769 5768 5763 5761 5761 5760 5758 5756 5754 5752 5751 5750 5745 5742 5740 5738 5734 5729 5726 5725 5724 5721 5719 5716 5714 5713 5710 5704 5700 5696 5693 5689 5685 5681 5678
5730 5732 5752 5765 5767 5770 5771 5767 5766 5765 5764 5761 5756 5752 5750 5748 5746 5745 5744 5742 5740 5737 5733 5731 5729 5726 5721 5719 5718 5715 5712 5709 5707 5705 5703 5700 5696 5691 5686 5683 5679 5676 5672 5669
5730 5737 5748 5756 5763 5766 5767 5764 5764 5763 5761 5756 5748 5746 5742 5739 5737 5736 5735 5733 5731 5727 5723 5721 5720 5718 5714 5712 5710 5706 5702 5700 5698 5695 5693 5690 5686 5683 5678 5673 5670 5667 5664 5661
5724 5732 5739 5746 5753 5757 5759 5760 5758 5756 5754 5750 5743 5738 5736 5732 5729 5727 5726 5724 5721 5718 5714 5712 5711 5708 5707 5704 5701 5697 5694 5691 5689 5686 5684 5680 5677 5673 5670 5666 5663 5660 5657 5654
5718 5729 5730 5734 5745 5751 5749 5747 5747 5745 5742 5742 5739 5733 5730 5725 5723 5720 5718 5715 5712 5709 5706 5704 5702 5699 5697 5695 5692 5688 5684 5682 5679 5676 5673 5670 5666 5663 5661 5659 5657 5655 5652 5648
5731 5736 5735 5737 5740 5743 5740 5739 5740 5737 5734 5732 5730 5728 5723 5718 5715 5712 5709 5705 5702 5699 5697 5695 5692 5690 5689 5687 5684 5680 5675 5672 5669 5667 5664 5660 5657 5653 5650 5649 5649 5647 5644 5641
5733 5731 5725 5727 5729 5733 5733 5732 5731 5728 5725 5723 5720 5718 5713 5709 5705 5702 5699 5696 5694 5691 5688 5685 5683 5681 5680 5678 5675 5671 5668 5665 5662 5657 5655 5652 5648 5645 5643 5640 5638 5637 5637 5634
5723 5724 5720 5721 5722 5722 5722 5720 5717 5713 5711 5710 5709 5706 5703 5698 5695 5692 5690 5689 5686 5682 5679 5676 5674 5672 5671 5669 5666 5662 5659 5656 5653 5649 5647 5644 5641 5638 5636 5633 5631 5629 5628 5626
5714 5715 5714 5712 5710 5710 5710 5708 5704 5701 5700 5699 5696 5695 5693 5690 5687 5683 5681 5679 5675 5671 5669 5667 5664 5663 5662 5660 5657 5654 5651 5649 5646 5642 5639 5636 5634 5631 5628 5625 5622 5620 5619 5618
5703 5700 5701 5700 5700 5700 5700 5700 5698 5695 5692 5690 5688 5686 5684 5680 5676 5673 5671 5669 5667 5663 5661 5658 5656 5655 5654 5651 5648 5645 5642 5640 5639 5635 5631 5629 5627 5624 5622 5619 5616 5614 5613 5612
5701 5699 5699 5697 5694 5692 5692 5692 5691 5688 5686 5685 5682 5677 5674 5670 5666 5664 5662 5660 5657 5654 5653 5651 5649 5647 5645 5643 5640 5637 5635 5632 5629 5627 5625 5623 5621 5619 5616 5613 5611 5609 5606 5605
5693 5691 5691 5690 5688 5686 5685 5684 5682 5681 5679 5677 5673 5668 5665 5662 5659 5656 5654 5651 5648 5645 5644 5644 5642 5639 5637 5635 5633 5630 5627 5625 5622 5620 5618 5617 5615 5613 5610 5607 5605 5602 5600 5597
5685 5684 5683 5682 5681 5679 5677 5676 5675 5672 5670 5668 5663 5659 5655 5652 5650 5648 5645 5642 5640 5639 5638 5636 5634 5631 5629 5627 5626 5623 5620 5618 5615 5613 5611 5609 5607 5605 5603 5601 5599 5596 5593 5591
5675 5676 5675 5672 5671 5671 5670 5669 5666 5663 5660 5658 5654 5650 5647 5644 5642 5640 5636 5633 5634 5633 5631 5629 5626 5624 5622 5620 5618 5616 5613 5610 5607 5605 5603 5600 5598 5597 5595 5593 5591 5589 5587 5585
5665 5665 5665 5663 5662 5661 5661 5660 5658 5655 5652 5649 5646 5643 5639 5636 5634 5632 5630 5628 5628 5627 5624 5622 5620 5618 5616 5614 5611 5609 5606 5604 5601 5598 5596 5593 5591 5589 5586 5584 5582 5581 5580 5578
5656 5656 5655 5654 5653 5652 5652 5651 5649 5647 5643 5640 5637 5635 5632 5630 5628 5625 5621 5622 5622 5620 5618 5616 5614 5612 5610 5607 5604 5602 5599 5597 5594 5592 5589 5586 5584 5582 5580 5578 5576 5574 5572 5571
5647 5646 5646 5645 5645 5643 5640 5640 5640 5638 5636 5634 5632 5630 5627 5624 5621 5620 5619 5618 5616 5615 5612 5610 5608 5606 5604 5601 5598 5595 5592 5590 5587 5585 5583 5581 5578 5576 5573 5571 5569 5567 5565 5564
5638 5638 5637 5636 5634 5633 5632 5632 5631 5629 5627 5625 5624 5623 5622 5619 5616 5615 5613 5612 5611 5609 5606 5604 5602 5600 5597 5594 5591 5588 5586 5583 5581 5579 5576 5574 5571 5569 5567 5564 5562 5560 5558 5556
5631 5630 5629 5628 5627 5626 5625 5624 5622 5620 5619 5617 5616 5615 5614 5613 5611 5610 5608 5607 5606 5603 5600 5598 5595 5592 5590 5587 5585 5582 5579 5577 5574 5572 5570 5567 5565 5562 5560 5558 5556 5553 5551 5549
5624 5623 5622 5621 5621 5621 5619 5617 5614 5613 5612 5610 5608 5608 5607 5606 5605 5604 5602 5600 5599 5596 5594 5592 5589 5586 5584 5581 5578 5576 5573 5570 5567 5565 5562 5560 5557 5555 5552 5550 5548 5546 5544 5541